Regional Weather Roundup
Issued by NWS State College, PA

Home | Current Version | Previous Version | Text Only | Print | Product List | Glossary Off
Versions: 1 2 3 4 5 6 7 8 9 10 11 12 13 14 15 16 17 18 19 20 21 22 23 24 25 26 27 28 29 30 31 32 33 34 35 36 37 38 39 40 41 42 43 44 45 46 47 48 49 50

070
ASUS41 KCTP 290210
RWRCTP

REGIONAL WEATHER ROUNDUP
NATIONAL WEATHER SERVICE STATE COLLEGE PA
1000 PM EDT FRI APR 28 2017

Note: "fair" indicates few or no clouds below 12,000 feet with no
significant weather and/or obstructions to visibility.

* = STATION THAT DOES NOT REPORT PRECIPITATION /E.G. RAIN...SNOW...ETC/
    THUNDER OR FOG.

PAZ002>004-007>009-013>016-020>023-029>032-290300-
WESTERN PENNSYLVANIA

CITY           SKY/WX    TMP DP  RH WIND       PRES   REMARKS
ERIE           CLOUDY    61  47  59 S7        30.01F
MEADVILLE      CLOUDY    58  48  69 CALM      30.02F
FRANKLIN*      CLOUDY    57  43  58 S5        30.07F
NEW CASTLE     LGT RAIN  60  49  66 VRB3      30.05F
BEAVER COUNTY  NOT AVBL
BUTLER*        CLOUDY    63  46  55 NE10      30.07F
PITTSBURGH INT CLOUDY    64  47  53 NE5       30.04R
PITTSBURGH     LGT RAIN  64  42  44 VRB6      30.02R
INDIANA*       MOCLDY    63  48  59 VRB7      30.09R
LATROBE        MOCLDY    63  48  59 N6        30.05R
WASHINGTON CO* CLOUDY    63  46  55 NE8       30.03R THUNDER
$$

PAZ004>006-010>012-017>019-024>028-033>037-041-042-045-046-049>053-290300-
CENTRAL PENNSYLVANIA

CITY           SKY/WX    TMP DP  RH WIND       PRES   REMARKS
BRADFORD       LGT RAIN  55  50  83 S7        30.11R
DUBOIS         CLOUDY    59  44  57 NE8       30.10R
CLEARFIELD     LGT RAIN  62  41  46 NW8       30.10R
JOHNSTOWN      MOCLDY    64  42  44 N9        30.06R
ALTOONA        PTCLDY    69  48  47 E5        30.03S
STATE COLLEGE  NOT AVBL
WILLIAMSPORT   NOT AVBL
SELINSGROVE    MOCLDY    60  54  80 CALM      30.03R
FT INDIANTOWN  MOCLDY    65  52  61 CALM      30.04R
CAPITAL CITY   PTCLDY    73  53  49 SE8       30.02R
HARRISBURG     MOCLDY    67  56  67 SE6       30.02R
YORK           PTCLDY    69  59  70 CALM      30.03R
$$

PAZ038>040-043-044-047-048-054-055-060>062-067>071-290300-
EASTERN PENNSYLVANIA

CITY           SKY/WX    TMP DP  RH WIND       PRES   REMARKS
SCRANTON       MOCLDY    65  44  46 SE3       30.05F
MOUNT POCONO   MOCLDY    58  40  51 W3        30.10R
ALLENTOWN      PTCLDY    66  46  48 CALM      30.04R
QUAKERTOWN*    CLOUDY    63  50  63 CALM      30.06R
READING        CLEAR     70  52  52 CALM      30.03R
LANCASTER      PTCLDY    67  55  65 CALM      30.04S
COATESVILLE    CLEAR     70  57  64 S3        30.08S
POTTSTOWN      PTCLDY    69  52  54 CALM      30.06R
BLUE BELL      CLEAR     70  55  60 CALM      30.07R
DOYLESTOWN     PTCLDY    71  53  52 S5        30.05R
WILLOW GROVE   NOT AVBL
NORTH PHILA    CLEAR     75  57  53 CALM      30.07R
PHILADELPHIA   PTCLDY    72  57  59 S8        30.06R
$$




USA.gov is the U.S. government's official web portal to all federal, state and local government web resources and services.